Regional Weather Roundup
Issued by NWS Albany, NY

Home | Current Version | Previous Version | Text Only | Print | Product List | Glossary On
Versions: 1 2 3 4 5 6 7 8 9 10 11 12 13 14 15 16 17 18 19 20 21 22 23 24 25 26 27 28 29 30 31 32 33 34 35 36 37 38 39 40 41 42 43 44 45 46 47 48 49 50
000
ASUS41 KALY 030210
RWRALY

NEW YORK STATE HOURLY WEATHER ROUNDUP
NATIONAL WEATHER SERVICE ALBANY NY
1000 PM EDT TUE JUN 02 2015

NOTE: "FAIR" INDICATES FEW OR NO CLOUDS BELOW 12,000 FEET WITH NO
SIGNIFICANT WEATHER AND/OR NO OBSTRUCTIONS TO VISIBILITY.

NYZ032-033-038>043-046>054-057>066-NYZ062>081-030300-
EAST


CITY           SKY/WX    TMP DP  RH WIND       PRES   REMARKS
ALBANY         CLOUDY    58  50  75 CALM      30.17R
GLENS FALLS    CLOUDY    54  46  74 NE13      30.19R
POUGHKEEPSIE   CLOUDY    53  51  93 CALM      30.17R
MONTGOMERY     CLOUDY    53  25  33 CALM      30.17R
WHITE PLAINS   CLOUDY    52  50  93 CALM      30.17R
ISLIP          LGT RAIN  52  49  89 NE9       30.15R
NEW YORK CITY  LGT RAIN  54  49  83 NE9       30.18R
CENTRAL PARK   LGT RAIN  53  51  93 VRB7      30.20R
$$

NYZ005>009-017-018-044>046-055-056-030300-
CENTRAL


CITY           SKY/WX    TMP DP  RH WIND       PRES   REMARKS
FULTON         PTCLDY    49  46  90 W3        30.21R
SYRACUSE       MOCLDY    53  49  86 N3        30.20R
ROME           PTCLDY    53  47  79 CALM      30.19R
ELMIRA         PTCLDY    51  48  89 E6        30.19R
BINGHAMTON     CLOUDY    53  48  83 N7        30.18R
MONTICELLO     CLOUDY    50  48  93 CALM      30.19R
$$

NYZ026>034-041>043-030300-
NORTH


CITY           SKY/WX    TMP DP  RH WIND       PRES   REMARKS
WATERTOWN      CLEAR     47  45  93 CALM      30.21R
FORT DRUM      NOT AVBL
MASSENA        CLEAR     45  43  93 CALM      30.25R
SARANAC LAKE   PTCLDY    42  40  92 CALM      30.21R
PLATTSBURGH    PTCLDY    46  45  96 CALM      30.23R FOG
$$

NYZ001>004-010>016-019>021-030300-
WEST


CITY           SKY/WX    TMP DP  RH WIND       PRES   REMARKS
NIAGARA FALLS  PTCLDY    56  47  71 E3        30.19R
BUFFALO        PTCLDY    57  46  66 NE3       30.20R
DUNKIRK        PTCLDY    52  45  77 SE3       30.18R
JAMESTOWN      PTCLDY    54  43  66 NE7       30.19R
WELLSVILLE     PTCLDY    51  46  83 NE7       30.21R
ROCHESTER      PTCLDY    55  43  63 E7        30.22R
PENN YAN       PTCLDY    48  46  93 CALM      30.20R
$$

             KEY
       WCI = WIND CHILL INDEX
       VSB = VISIBILITY
       HX  = HEAT INDEX
$$



USA.gov is the U.S. government's official web portal to all federal, state and local government web resources and services.